Time,TemperatureF,DewpointF,PressureIn,WindDirection,WindDirectionDegrees,WindSpeedMPH,WindSpeedGustMPH,Humidity,HourlyPrecipIn,Conditions,Clouds,dailyrainin,SoftwareType,DateUTC
2013-02-09 00:03:00,24.0,12.0,30.30,South,180,0.0,0.0,64,0.00,,,0.00,TxWx,2013-02-09 06:03:00,
2013-02-09 00:08:00,24.0,12.0,30.30,SE,135,0.0,0.0,62,0.00,,,0.00,TxWx,2013-02-09 06:08:00,
2013-02-09 00:14:00,24.0,12.0,30.30,SSW,202,0.0,0.0,63,0.00,,,0.00,TxWx,2013-02-09 06:14:00,
2013-02-09 00:19:00,24.0,12.0,30.30,SSW,202,0.0,0.0,64,0.00,,,0.00,TxWx,2013-02-09 06:19:00,
2013-02-09 00:24:00,24.0,12.0,30.30,SSW,202,0.0,0.0,64,0.00,,,0.00,TxWx,2013-02-09 06:24:00,
2013-02-09 00:29:00,24.0,12.0,30.30,SW,225,0.0,0.0,63,0.00,,,0.00,TxWx,2013-02-09 06:29:00,
2013-02-09 00:34:00,24.0,12.0,30.30,SSW,202,0.0,0.0,63,0.00,,,0.00,TxWx,2013-02-09 06:34:00,
2013-02-09 00:40:00,24.0,12.0,30.29,NE,45,0.0,0.0,64,0.00,,,0.00,TxWx,2013-02-09 06:40:00,
2013-02-09 00:45:00,24.0,12.0,30.29,NNE,22,0.0,0.0,63,0.00,,,0.00,TxWx,2013-02-09 06:45:00,
2013-02-09 00:50:00,23.0,12.0,30.29,North,0,0.0,0.0,65,0.00,,,0.00,TxWx,2013-02-09 06:50:00,
2013-02-09 00:55:00,23.0,12.0,30.29,North,0,0.0,0.0,64,0.00,,,0.00,TxWx,2013-02-09 06:55:00,
2013-02-09 01:01:00,23.0,12.0,30.28,North,0,0.0,0.0,64,0.00,,,0.00,TxWx,2013-02-09 07:01:00,
2013-02-09 01:06:00,23.0,12.0,30.28,NNE,22,0.0,0.0,66,0.00,,,0.00,TxWx,2013-02-09 07:06:00,
2013-02-09 01:11:00,22.0,12.0,30.29,North,0,0.0,0.0,67,0.00,,,0.00,TxWx,2013-02-09 07:11:00,
2013-02-09 01:17:00,22.0,12.0,30.29,North,0,0.0,0.0,68,0.00,,,0.00,TxWx,2013-02-09 07:17:00,
2013-02-09 01:22:00,22.0,12.0,30.30,NNW,337,0.0,0.0,69,0.00,,,0.00,TxWx,2013-02-09 07:22:00,
2013-02-09 01:27:00,21.0,12.0,30.30,NNW,337,0.0,0.0,71,0.00,,,0.00,TxWx,2013-02-09 07:27:00,
2013-02-09 01:32:00,21.0,12.0,30.30,NNW,337,0.0,0.0,70,0.00,,,0.00,TxWx,2013-02-09 07:32:00,
2013-02-09 01:37:00,21.0,12.0,30.30,NW,315,0.0,0.0,71,0.00,,,0.00,TxWx,2013-02-09 07:37:00,
2013-02-09 01:42:00,21.0,12.0,30.31,NW,315,0.0,0.0,70,0.00,,,0.00,TxWx,2013-02-09 07:42:00,
2013-02-09 01:47:00,21.0,11.0,30.31,NW,315,0.0,0.0,69,0.00,,,0.00,TxWx,2013-02-09 07:47:00,
2013-02-09 01:52:00,20.0,11.0,30.31,NW,315,0.0,0.0,72,0.00,,,0.00,TxWx,2013-02-09 07:52:00,
2013-02-09 01:58:00,20.0,11.0,30.31,NW,315,0.0,0.0,71,0.00,,,0.00,TxWx,2013-02-09 07:58:00,
2013-02-09 02:03:00,20.0,12.0,30.31,WNW,292,0.0,0.0,73,0.00,,,0.00,TxWx,2013-02-09 08:03:00,
2013-02-09 02:08:00,19.0,11.0,30.31,WNW,292,0.0,0.0,75,0.00,,,0.00,TxWx,2013-02-09 08:08:00,
2013-02-09 02:13:00,19.0,11.0,30.32,WNW,292,0.0,0.0,73,0.00,,,0.00,TxWx,2013-02-09 08:13:00,
2013-02-09 02:18:00,19.0,10.0,30.31,NNW,337,0.0,0.0,72,0.00,,,0.00,TxWx,2013-02-09 08:18:00,
2013-02-09 02:24:00,19.0,10.0,30.31,North,0,0.0,0.0,72,0.00,,,0.00,TxWx,2013-02-09 08:24:00,
2013-02-09 02:29:00,19.0,11.0,30.31,NNE,22,0.0,0.0,73,0.00,,,0.00,TxWx,2013-02-09 08:29:00,
2013-02-09 02:34:00,19.0,11.0,30.30,North,0,0.0,0.0,73,0.00,,,0.00,TxWx,2013-02-09 08:34:00,
2013-02-09 02:39:00,19.0,11.0,30.30,North,0,0.0,0.0,74,0.00,,,0.00,TxWx,2013-02-09 08:39:00,
2013-02-09 02:45:00,18.0,11.0,30.30,NE,45,0.0,0.0,77,0.00,,,0.00,TxWx,2013-02-09 08:45:00,
2013-02-09 02:50:00,17.0,10.0,30.30,NNE,22,0.0,0.0,79,0.00,,,0.00,TxWx,2013-02-09 08:50:00,
2013-02-09 02:55:00,18.0,10.0,30.29,North,0,0.0,0.0,73,0.00,,,0.00,TxWx,2013-02-09 08:55:00,
2013-02-09 03:00:00,19.0,9.0,30.29,North,0,0.0,0.0,66,0.00,,,0.00,TxWx,2013-02-09 09:00:00,
2013-02-09 03:06:00,19.0,10.0,30.29,North,0,0.0,0.0,70,0.00,,,0.00,TxWx,2013-02-09 09:06:00,
2013-02-09 03:11:00,20.0,10.0,30.29,North,0,0.0,0.0,67,0.00,,,0.00,TxWx,2013-02-09 09:11:00,
2013-02-09 03:16:00,20.0,10.0,30.29,NE,45,0.0,0.0,67,0.00,,,0.00,TxWx,2013-02-09 09:16:00,
2013-02-09 03:21:00,20.0,10.0,30.28,North,0,0.0,0.0,68,0.00,,,0.00,TxWx,2013-02-09 09:21:00,
2013-02-09 03:27:00,20.0,10.0,30.28,NNW,337,0.0,0.0,68,0.00,,,0.00,TxWx,2013-02-09 09:27:00,
2013-02-09 03:32:00,19.0,10.0,30.29,North,0,0.0,0.0,72,0.00,,,0.00,TxWx,2013-02-09 09:32:00,
2013-02-09 03:37:00,19.0,11.0,30.28,North,0,0.0,0.0,74,0.00,,,0.00,TxWx,2013-02-09 09:37:00,
2013-02-09 03:42:00,18.0,10.0,30.28,North,0,0.0,0.0,73,0.00,,,0.00,TxWx,2013-02-09 09:42:00,
2013-02-09 03:47:00,18.0,9.0,30.29,SSW,202,0.0,0.0,71,0.00,,,0.00,TxWx,2013-02-09 09:47:00,
2013-02-09 03:52:00,17.0,13.0,30.29,SW,225,0.0,0.0,87,0.00,,,0.00,TxWx,2013-02-09 09:52:00,
2013-02-09 03:58:00,15.0,11.0,30.29,SW,225,0.0,0.0,89,0.00,,,0.00,TxWx,2013-02-09 09:58:00,
2013-02-09 04:03:00,14.0,9.0,30.29,SW,225,0.0,0.0,83,0.00,,,0.00,TxWx,2013-02-09 10:03:00,
2013-02-09 04:08:00,15.0,7.0,30.29,SW,225,0.0,0.0,74,0.00,,,0.00,TxWx,2013-02-09 10:08:00,
2013-02-09 04:13:00,16.0,8.0,30.30,SW,225,0.0,0.0,75,0.00,,,0.00,TxWx,2013-02-09 10:13:00,
2013-02-09 04:19:00,16.0,10.0,30.29,SW,225,0.0,0.0,82,0.00,,,0.00,TxWx,2013-02-09 10:19:00,
2013-02-09 04:24:00,17.0,9.0,30.29,SSW,202,0.0,0.0,73,0.00,,,0.00,TxWx,2013-02-09 10:24:00,
2013-02-09 04:29:00,17.0,10.0,30.30,SW,225,0.0,0.0,76,0.00,,,0.00,TxWx,2013-02-09 10:29:00,
2013-02-09 04:34:00,17.0,10.0,30.30,West,270,0.0,0.0,76,0.00,,,0.00,TxWx,2013-02-09 10:34:00,
2013-02-09 04:39:00,17.0,10.0,30.30,WSW,247,0.0,0.0,77,0.00,,,0.00,TxWx,2013-02-09 10:39:00,
2013-02-09 04:45:00,17.0,10.0,30.30,SW,225,0.0,0.0,78,0.00,,,0.00,TxWx,2013-02-09 10:45:00,
2013-02-09 04:50:00,18.0,9.0,30.29,SSW,202,0.0,0.0,71,0.00,,,0.00,TxWx,2013-02-09 10:50:00,
2013-02-09 04:55:00,18.0,9.0,30.29,SSW,202,0.0,0.0,70,0.00,,,0.00,TxWx,2013-02-09 10:55:00,
2013-02-09 05:00:00,20.0,6.0,30.29,South,180,0.0,0.0,58,0.00,,,0.00,TxWx,2013-02-09 11:00:00,
2013-02-09 05:06:00,22.0,5.0,30.28,South,180,0.0,0.0,49,0.00,,,0.00,TxWx,2013-02-09 11:06:00,
2013-02-09 05:11:00,23.0,6.0,30.29,SSW,202,0.0,0.0,51,0.00,,,0.00,TxWx,2013-02-09 11:11:00,
2013-02-09 05:16:00,23.0,9.0,30.29,SSW,202,0.0,0.0,56,0.00,,,0.00,TxWx,2013-02-09 11:16:00,
2013-02-09 05:22:00,23.0,6.0,30.29,South,180,0.0,0.0,50,0.00,,,0.00,TxWx,2013-02-09 11:22:00,
2013-02-09 05:27:00,23.0,5.0,30.29,SSW,202,0.0,0.0,48,0.00,,,0.00,TxWx,2013-02-09 11:27:00,
2013-02-09 05:32:00,24.0,7.0,30.29,SSW,202,0.0,0.0,50,0.00,,,0.00,TxWx,2013-02-09 11:32:00,
2013-02-09 05:37:00,24.0,7.0,30.29,SSW,202,0.0,0.0,51,0.00,,,0.00,TxWx,2013-02-09 11:37:00,
2013-02-09 05:42:00,24.0,7.0,30.29,South,180,0.0,0.0,51,0.00,,,0.00,TxWx,2013-02-09 11:42:00,
2013-02-09 05:48:00,25.0,10.0,30.30,South,180,0.0,0.0,54,0.00,,,0.00,TxWx,2013-02-09 11:48:00,
2013-02-09 05:53:00,25.0,14.0,30.30,South,180,0.0,0.0,66,0.00,,,0.00,TxWx,2013-02-09 11:53:00,
2013-02-09 05:58:00,25.0,16.0,30.30,South,180,0.0,0.0,70,0.00,,,0.00,TxWx,2013-02-09 11:58:00,
2013-02-09 06:04:00,25.0,17.0,30.29,South,180,0.0,0.0,75,0.00,,,0.00,TxWx,2013-02-09 12:04:00,
2013-02-09 06:09:00,25.0,18.0,30.29,South,180,0.0,0.0,77,0.00,,,0.00,TxWx,2013-02-09 12:09:00,
2013-02-09 06:14:00,25.0,18.0,30.29,SSE,157,0.0,0.0,79,0.00,,,0.00,TxWx,2013-02-09 12:14:00,
2013-02-09 06:19:00,25.0,19.0,30.29,SSE,157,0.0,0.0,82,0.00,,,0.00,TxWx,2013-02-09 12:19:00,
2013-02-09 06:25:00,25.0,19.0,30.28,SE,135,0.0,0.0,83,0.00,,,0.00,TxWx,2013-02-09 12:25:00,
2013-02-09 06:30:00,26.0,21.0,30.28,SSE,157,0.0,0.0,84,0.00,,,0.00,TxWx,2013-02-09 12:30:00,
2013-02-09 06:35:00,26.0,21.0,30.28,SSE,157,0.0,0.0,85,0.00,,,0.00,TxWx,2013-02-09 12:35:00,
2013-02-09 06:40:00,26.0,21.0,30.28,SSE,157,0.0,0.0,86,0.00,,,0.00,TxWx,2013-02-09 12:40:00,
2013-02-09 06:46:00,26.0,21.0,30.28,SE,135,0.0,0.0,86,0.00,,,0.00,TxWx,2013-02-09 12:46:00,
2013-02-09 06:51:00,26.0,22.0,30.28,SSE,157,0.0,0.0,89,0.00,,,0.00,TxWx,2013-02-09 12:51:00,
2013-02-09 06:56:00,26.0,23.0,30.28,SSE,157,0.0,0.0,91,0.00,,,0.00,TxWx,2013-02-09 12:56:00,
2013-02-09 07:01:00,26.0,23.0,30.28,SSE,157,0.0,0.0,91,0.00,,,0.00,TxWx,2013-02-09 13:01:00,
2013-02-09 07:07:00,26.0,23.0,30.27,SE,135,0.0,0.0,92,0.00,,,0.00,TxWx,2013-02-09 13:07:00,
2013-02-09 07:12:00,26.0,23.0,30.28,SSE,157,0.0,0.0,91,0.00,,,0.00,TxWx,2013-02-09 13:12:00,
2013-02-09 07:17:00,26.0,23.0,30.28,SSE,157,0.0,0.0,92,0.00,,,0.00,TxWx,2013-02-09 13:17:00,
2013-02-09 07:22:00,26.0,23.0,30.28,SE,135,0.0,0.0,92,0.00,,,0.00,TxWx,2013-02-09 13:22:00,
2013-02-09 07:27:00,26.0,23.0,30.29,SSE,157,0.0,0.0,92,0.00,,,0.00,TxWx,2013-02-09 13:27:00,
2013-02-09 07:33:00,26.0,23.0,30.28,ESE,112,0.0,0.0,92,0.00,,,0.00,TxWx,2013-02-09 13:33:00,
2013-02-09 07:38:00,26.0,23.0,30.28,South,180,0.0,0.0,92,0.00,,,0.00,TxWx,2013-02-09 13:38:00,
2013-02-09 07:43:00,26.0,23.0,30.28,SSE,157,0.0,0.0,91,0.00,,,0.00,TxWx,2013-02-09 13:43:00,
2013-02-09 07:48:00,26.0,23.0,30.28,SE,135,0.0,0.0,92,0.00,,,0.00,TxWx,2013-02-09 13:48:00,
2013-02-09 07:54:00,26.0,23.0,30.28,SSE,157,0.0,0.0,92,0.00,,,0.00,TxWx,2013-02-09 13:54:00,
2013-02-09 07:59:00,26.0,23.0,30.28,South,180,0.0,0.0,92,0.00,,,0.00,TxWx,2013-02-09 13:59:00,
2013-02-09 08:04:00,26.0,23.0,30.28,South,180,0.0,0.0,92,0.00,,,0.00,TxWx,2013-02-09 14:04:00,
2013-02-09 08:09:00,27.0,24.0,30.28,SSE,157,0.0,0.0,92,0.00,,,0.00,TxWx,2013-02-09 14:09:00,
2013-02-09 08:14:00,27.0,24.0,30.28,SSE,157,0.0,0.0,92,0.00,,,0.00,TxWx,2013-02-09 14:14:00,
2013-02-09 08:20:00,27.0,24.0,30.28,SSE,157,0.0,0.0,93,0.00,,,0.00,TxWx,2013-02-09 14:20:00,
2013-02-09 08:25:00,27.0,25.0,30.29,SE,135,0.0,0.0,95,0.00,,,0.00,TxWx,2013-02-09 14:25:00,
2013-02-09 08:30:00,27.0,25.0,30.28,South,180,0.0,0.0,96,0.00,,,0.00,TxWx,2013-02-09 14:30:00,
2013-02-09 08:35:00,27.0,25.0,30.28,SE,135,0.0,0.0,97,0.00,,,0.00,TxWx,2013-02-09 14:35:00,
2013-02-09 08:41:00,27.0,25.0,30.28,South,180,0.0,0.0,98,0.00,,,0.00,TxWx,2013-02-09 14:41:00,
2013-02-09 08:46:00,27.0,26.0,30.28,South,180,0.0,0.0,99,0.00,,,0.00,TxWx,2013-02-09 14:46:00,
2013-02-09 08:51:00,27.0,27.0,30.28,SSW,202,0.0,0.0,100,0.00,,,0.00,TxWx,2013-02-09 14:51:00,
2013-02-09 08:56:00,27.0,27.0,30.27,SSE,157,0.0,0.0,100,0.00,,,0.00,TxWx,2013-02-09 14:56:00,
2013-02-09 09:02:00,27.0,27.0,30.27,South,180,0.0,0.0,100,0.00,,,0.00,TxWx,2013-02-09 15:02:00,
2013-02-09 09:07:00,27.0,27.0,30.27,South,180,0.0,0.0,100,0.00,,,0.00,TxWx,2013-02-09 15:07:00,
2013-02-09 09:12:00,27.0,27.0,30.27,SSE,157,0.0,0.0,100,0.00,,,0.00,TxWx,2013-02-09 15:12:00,
2013-02-09 09:17:00,27.0,27.0,30.27,South,180,0.0,0.0,100,0.00,,,0.00,TxWx,2013-02-09 15:17:00,
2013-02-09 09:22:00,27.0,27.0,30.27,SSE,157,0.0,0.0,100,0.00,,,0.00,TxWx,2013-02-09 15:22:00,
2013-02-09 09:28:00,27.0,27.0,30.27,SSE,157,0.0,0.0,100,0.00,,,0.00,TxWx,2013-02-09 15:28:00,
2013-02-09 09:33:00,27.0,27.0,30.26,SSE,157,0.0,0.0,100,0.00,,,0.00,TxWx,2013-02-09 15:33:00,
2013-02-09 09:38:00,27.0,27.0,30.26,SSE,157,0.0,0.0,100,0.00,,,0.00,TxWx,2013-02-09 15:38:00,
2013-02-09 09:43:00,27.0,27.0,30.26,SE,135,0.0,0.0,100,0.00,,,0.00,TxWx,2013-02-09 15:43:00,
2013-02-09 09:48:00,27.0,27.0,30.26,SSE,157,0.0,0.0,100,0.00,,,0.00,TxWx,2013-02-09 15:48:00,
2013-02-09 09:53:00,27.0,27.0,30.26,South,180,0.0,0.0,100,0.00,,,0.00,TxWx,2013-02-09 15:53:00,
2013-02-09 09:59:00,27.0,27.0,30.27,South,180,0.0,0.0,100,0.00,,,0.00,TxWx,2013-02-09 15:59:00,
2013-02-09 10:04:00,27.0,27.0,30.27,SSE,157,0.0,0.0,100,0.00,,,0.00,TxWx,2013-02-09 16:04:00,
2013-02-09 10:09:00,27.0,27.0,30.27,South,180,0.0,0.0,100,0.00,,,0.00,TxWx,2013-02-09 16:09:00,
2013-02-09 10:14:00,28.0,28.0,30.27,SSE,157,0.0,0.0,100,0.00,,,0.00,TxWx,2013-02-09 16:14:00,
2013-02-09 10:20:00,27.0,27.0,30.27,South,180,0.0,0.0,100,0.00,,,0.00,TxWx,2013-02-09 16:20:00,
2013-02-09 10:25:00,28.0,28.0,30.26,South,180,0.0,0.0,100,0.00,,,0.00,TxWx,2013-02-09 16:25:00,
2013-02-09 10:30:00,28.0,28.0,30.26,SSE,157,0.0,0.0,100,0.00,,,0.00,TxWx,2013-02-09 16:30:00,
2013-02-09 10:35:00,28.0,28.0,30.26,SSE,157,0.0,0.0,100,0.00,,,0.00,TxWx,2013-02-09 16:35:00,
2013-02-09 10:40:00,28.0,28.0,30.26,South,180,0.0,0.0,100,0.00,,,0.00,TxWx,2013-02-09 16:40:00,
2013-02-09 10:46:00,28.0,28.0,30.25,South,180,0.0,0.0,100,0.00,,,0.00,TxWx,2013-02-09 16:46:00,
2013-02-09 10:51:00,28.0,28.0,30.25,South,180,0.0,0.0,100,0.00,,,0.00,TxWx,2013-02-09 16:51:00,
2013-02-09 10:56:00,28.0,28.0,30.26,South,180,0.0,0.0,100,0.00,,,0.00,TxWx,2013-02-09 16:56:00,
2013-02-09 11:01:00,28.0,28.0,30.26,SSE,157,0.0,0.0,100,0.00,,,0.00,TxWx,2013-02-09 17:01:00,
2013-02-09 11:07:00,28.0,28.0,30.25,South,180,0.0,0.0,100,0.00,,,0.00,TxWx,2013-02-09 17:07:00,
2013-02-09 11:12:00,28.0,28.0,30.24,SSE,157,0.0,0.0,100,0.00,,,0.00,TxWx,2013-02-09 17:12:00,
2013-02-09 11:17:00,28.0,28.0,30.24,South,180,0.0,0.0,100,0.00,,,0.00,TxWx,2013-02-09 17:17:00,
2013-02-09 11:23:00,28.0,28.0,30.23,SSW,202,0.0,0.0,100,0.00,,,0.00,TxWx,2013-02-09 17:23:00,
2013-02-09 11:28:00,29.0,29.0,30.23,SSE,157,0.0,0.0,100,0.00,,,0.00,TxWx,2013-02-09 17:28:00,
2013-02-09 11:33:00,29.0,29.0,30.23,South,180,0.0,0.0,100,0.00,,,0.00,TxWx,2013-02-09 17:33:00,
2013-02-09 11:38:00,29.0,29.0,30.22,SSE,157,0.0,0.0,100,0.00,,,0.00,TxWx,2013-02-09 17:38:00,
2013-02-09 11:44:00,29.0,29.0,30.22,SSE,157,0.0,0.0,100,0.00,,,0.00,TxWx,2013-02-09 17:44:00,
2013-02-09 11:49:00,29.0,29.0,30.21,SSW,202,0.0,0.0,100,0.00,,,0.00,TxWx,2013-02-09 17:49:00,
2013-02-09 11:54:00,29.0,29.0,30.21,South,180,0.0,0.0,100,0.00,,,0.00,TxWx,2013-02-09 17:54:00,
2013-02-09 11:59:00,30.0,30.0,30.20,South,180,0.0,0.0,100,0.00,,,0.00,TxWx,2013-02-09 17:59:00,
2013-02-09 12:05:00,29.0,29.0,30.20,South,180,0.0,0.0,100,0.00,,,0.00,TxWx,2013-02-09 18:05:00,
2013-02-09 12:10:00,30.0,30.0,30.20,SSE,157,0.0,0.0,100,0.00,,,0.00,TxWx,2013-02-09 18:10:00,
2013-02-09 12:15:00,30.0,30.0,30.19,South,180,0.0,0.0,100,0.00,,,0.00,TxWx,2013-02-09 18:15:00,
2013-02-09 12:20:00,30.0,30.0,30.19,South,180,0.0,0.0,100,0.00,,,0.00,TxWx,2013-02-09 18:20:00,
2013-02-09 12:26:00,30.0,30.0,30.18,SSE,157,4.0,5.0,100,0.00,,,0.00,TxWx,2013-02-09 18:26:00,
2013-02-09 12:31:00,30.0,30.0,30.18,SE,135,3.0,4.0,100,0.00,,,0.00,TxWx,2013-02-09 18:31:00,
2013-02-09 12:36:00,31.0,31.0,30.18,SSE,157,5.0,5.0,100,0.00,,,0.00,TxWx,2013-02-09 18:36:00,
2013-02-09 12:41:00,31.0,31.0,30.18,South,180,5.0,5.0,100,0.00,,,0.00,TxWx,2013-02-09 18:41:00,
2013-02-09 12:46:00,31.0,31.0,30.18,South,180,7.0,7.0,100,0.00,,,0.00,TxWx,2013-02-09 18:46:00,
2013-02-09 12:51:00,30.0,30.0,30.18,SSE,157,6.0,6.0,100,0.00,,,0.00,TxWx,2013-02-09 18:51:00,
2013-02-09 12:57:00,30.0,30.0,30.17,South,180,8.0,8.0,100,0.00,,,0.00,TxWx,2013-02-09 18:57:00,
2013-02-09 13:02:00,31.0,31.0,30.17,South,180,5.0,5.0,100,0.00,,,0.00,TxWx,2013-02-09 19:02:00,
2013-02-09 13:07:00,31.0,31.0,30.16,SE,135,6.0,6.0,100,0.00,,,0.00,TxWx,2013-02-09 19:07:00,
2013-02-09 13:13:00,31.0,31.0,30.16,SE,135,8.0,9.0,100,0.00,,,0.00,TxWx,2013-02-09 19:13:00,
2013-02-09 13:18:00,31.0,31.0,30.16,SSE,157,9.0,10.0,100,0.00,,,0.00,TxWx,2013-02-09 19:18:00,
2013-02-09 13:23:00,32.0,32.0,30.16,South,180,7.0,8.0,100,0.00,,,0.00,TxWx,2013-02-09 19:23:00,
2013-02-09 13:28:00,32.0,32.0,30.15,SSE,157,4.0,4.0,100,0.00,,,0.00,TxWx,2013-02-09 19:28:00,
2013-02-09 13:33:00,32.0,32.0,30.15,SSW,202,5.0,5.0,100,0.00,,,0.00,TxWx,2013-02-09 19:33:00,
2013-02-09 13:38:00,32.0,32.0,30.16,South,180,8.0,8.0,100,0.00,,,0.00,TxWx,2013-02-09 19:38:00,
2013-02-09 13:44:00,32.0,32.0,30.15,SSE,157,8.0,9.0,100,0.00,,,0.00,TxWx,2013-02-09 19:44:00,
2013-02-09 13:49:00,33.0,33.0,30.14,SSE,157,8.0,10.0,100,0.00,,,0.00,TxWx,2013-02-09 19:49:00,
2013-02-09 13:54:00,33.0,33.0,30.14,South,180,8.0,8.0,100,0.00,,,0.00,TxWx,2013-02-09 19:54:00,
2013-02-09 13:59:00,33.0,33.0,30.14,South,180,8.0,8.0,100,0.00,,,0.00,TxWx,2013-02-09 19:59:00,
2013-02-09 14:04:00,33.0,33.0,30.14,South,180,6.0,7.0,100,0.00,,,0.00,TxWx,2013-02-09 20:04:00,
2013-02-09 14:10:00,33.0,33.0,30.13,SSE,157,6.0,6.0,100,0.00,,,0.00,TxWx,2013-02-09 20:10:00,
2013-02-09 14:15:00,33.0,33.0,30.13,South,180,7.0,8.0,100,0.00,,,0.00,TxWx,2013-02-09 20:15:00,
2013-02-09 14:20:00,33.0,33.0,30.12,SSE,157,8.0,8.0,100,0.00,,,0.00,TxWx,2013-02-09 20:20:00,
2013-02-09 14:26:00,33.0,33.0,30.13,SSE,157,8.0,8.0,100,0.00,,,0.00,TxWx,2013-02-09 20:26:00,
2013-02-09 14:31:00,33.0,33.0,30.13,South,180,7.0,7.0,100,0.00,,,0.00,TxWx,2013-02-09 20:31:00,
2013-02-09 14:36:00,33.0,33.0,30.13,South,180,6.0,6.0,99,0.00,,,0.00,TxWx,2013-02-09 20:36:00,
2013-02-09 14:41:00,33.0,33.0,30.13,South,180,4.0,5.0,100,0.00,,,0.00,TxWx,2013-02-09 20:41:00,
2013-02-09 14:47:00,33.0,33.0,30.13,SSE,157,5.0,5.0,100,0.00,,,0.00,TxWx,2013-02-09 20:47:00,
2013-02-09 14:52:00,33.0,33.0,30.13,SSE,157,4.0,5.0,100,0.00,,,0.00,TxWx,2013-02-09 20:52:00,
2013-02-09 14:57:00,34.0,34.0,30.13,South,180,6.0,6.0,99,0.00,,,0.00,TxWx,2013-02-09 20:57:00,
2013-02-09 15:02:00,34.0,34.0,30.13,SSW,202,4.0,4.0,99,0.00,,,0.00,TxWx,2013-02-09 21:02:00,
2013-02-09 15:07:00,34.0,33.0,30.13,SSE,157,6.0,6.0,98,0.00,,,0.00,TxWx,2013-02-09 21:07:00,
2013-02-09 15:13:00,33.0,32.0,30.13,South,180,7.0,8.0,98,0.00,,,0.00,TxWx,2013-02-09 21:13:00,
2013-02-09 15:18:00,33.0,33.0,30.13,SSE,157,5.0,5.0,99,0.00,,,0.00,TxWx,2013-02-09 21:18:00,
2013-02-09 15:23:00,33.0,33.0,30.13,South,180,6.0,6.0,100,0.00,,,0.00,TxWx,2013-02-09 21:23:00,
2013-02-09 15:28:00,33.0,33.0,30.13,SSW,202,5.0,5.0,100,0.00,,,0.00,TxWx,2013-02-09 21:28:00,
2013-02-09 15:34:00,33.0,33.0,30.12,South,180,5.0,5.0,99,0.00,,,0.00,TxWx,2013-02-09 21:34:00,
2013-02-09 15:39:00,33.0,33.0,30.12,SSE,157,6.0,7.0,100,0.00,,,0.00,TxWx,2013-02-09 21:39:00,
2013-02-09 15:44:00,33.0,33.0,30.12,SSW,202,5.0,5.0,100,0.00,,,0.00,TxWx,2013-02-09 21:44:00,
2013-02-09 15:49:00,32.0,32.0,30.12,South,180,3.0,4.0,100,0.00,,,0.00,TxWx,2013-02-09 21:49:00,
2013-02-09 15:55:00,32.0,32.0,30.11,South,180,3.0,4.0,100,0.00,,,0.00,TxWx,2013-02-09 21:55:00,
2013-02-09 16:00:00,32.0,32.0,30.11,SSE,157,5.0,5.0,100,0.00,,,0.00,TxWx,2013-02-09 22:00:00,
2013-02-09 16:05:00,32.0,32.0,30.11,SE,135,4.0,5.0,100,0.00,,,0.00,TxWx,2013-02-09 22:05:00,
2013-02-09 16:10:00,32.0,32.0,30.11,SSE,157,4.0,4.0,100,0.00,,,0.00,TxWx,2013-02-09 22:10:00,
2013-02-09 16:16:00,32.0,32.0,30.11,SSE,157,5.0,5.0,100,0.00,,,0.00,TxWx,2013-02-09 22:16:00,
2013-02-09 16:21:00,32.0,32.0,30.10,SE,135,3.0,3.0,100,0.00,,,0.00,TxWx,2013-02-09 22:21:00,
2013-02-09 16:26:00,32.0,32.0,30.10,SSE,157,4.0,4.0,100,0.00,,,0.00,TxWx,2013-02-09 22:26:00,
2013-02-09 16:31:00,32.0,32.0,30.11,SSE,157,3.0,3.0,100,0.00,,,0.00,TxWx,2013-02-09 22:31:00,
2013-02-09 16:36:00,32.0,32.0,30.11,SSE,157,5.0,5.0,100,0.00,,,0.00,TxWx,2013-02-09 22:36:00,
2013-02-09 16:42:00,32.0,32.0,30.11,SE,135,3.0,4.0,100,0.00,,,0.00,TxWx,2013-02-09 22:42:00,
2013-02-09 16:47:00,32.0,32.0,30.10,SE,135,3.0,3.0,100,0.00,,,0.00,TxWx,2013-02-09 22:47:00,
2013-02-09 16:52:00,31.0,31.0,30.10,SSE,157,3.0,3.0,100,0.00,,,0.00,TxWx,2013-02-09 22:52:00,
2013-02-09 16:57:00,31.0,31.0,30.10,South,180,3.0,3.0,100,0.00,,,0.00,TxWx,2013-02-09 22:57:00,
2013-02-09 17:02:00,31.0,31.0,30.10,SSE,157,3.0,3.0,100,0.00,,,0.00,TxWx,2013-02-09 23:02:00,
2013-02-09 17:07:00,31.0,31.0,30.10,South,180,3.0,3.0,100,0.00,,,0.00,TxWx,2013-02-09 23:07:00,
2013-02-09 17:12:00,31.0,31.0,30.10,SSE,157,4.0,4.0,100,0.00,,,0.00,TxWx,2013-02-09 23:12:00,
2013-02-09 17:17:00,31.0,31.0,30.10,South,180,5.0,5.0,100,0.00,,,0.00,TxWx,2013-02-09 23:17:00,
2013-02-09 17:22:00,31.0,31.0,30.10,South,180,4.0,4.0,100,0.00,,,0.00,TxWx,2013-02-09 23:22:00,
2013-02-09 17:27:00,31.0,31.0,30.09,SSE,157,3.0,3.0,100,0.00,,,0.00,TxWx,2013-02-09 23:27:00,
2013-02-09 17:32:00,31.0,31.0,30.09,SSE,157,2.0,2.0,100,0.00,,,0.00,TxWx,2013-02-09 23:32:00,
2013-02-09 17:38:00,31.0,31.0,30.09,SSE,157,2.0,2.0,100,0.00,,,0.00,TxWx,2013-02-09 23:38:00,
2013-02-09 17:43:00,31.0,31.0,30.09,SSE,157,3.0,3.0,100,0.00,,,0.00,TxWx,2013-02-09 23:43:00,
2013-02-09 17:48:00,31.0,31.0,30.09,SSE,157,3.0,4.0,100,0.00,,,0.00,TxWx,2013-02-09 23:48:00,
2013-02-09 17:53:00,31.0,31.0,30.09,South,180,3.0,5.0,100,0.00,,,0.00,TxWx,2013-02-09 23:53:00,
2013-02-09 17:58:00,30.0,30.0,30.09,SSE,157,4.0,4.0,100,0.00,,,0.00,TxWx,2013-02-09 23:58:00,
2013-02-09 18:03:00,31.0,31.0,30.09,SE,135,3.0,3.0,100,0.00,,,0.00,TxWx,2013-02-10 00:03:00,
2013-02-09 18:08:00,31.0,31.0,30.09,SSE,157,4.0,4.0,100,0.00,,,0.00,TxWx,2013-02-10 00:08:00,
2013-02-09 18:13:00,31.0,31.0,30.09,South,180,4.0,5.0,100,0.00,,,0.00,TxWx,2013-02-10 00:13:00,
2013-02-09 18:19:00,31.0,31.0,30.09,SSE,157,4.0,4.0,100,0.00,,,0.00,TxWx,2013-02-10 00:19:00,
2013-02-09 18:24:00,31.0,31.0,30.08,South,180,3.0,3.0,100,0.00,,,0.00,TxWx,2013-02-10 00:24:00,
2013-02-09 18:29:00,30.0,30.0,30.08,SE,135,4.0,4.0,100,0.00,,,0.00,TxWx,2013-02-10 00:29:00,
2013-02-09 18:34:00,30.0,30.0,30.08,SSE,157,3.0,3.0,100,0.00,,,0.00,TxWx,2013-02-10 00:34:00,
2013-02-09 18:39:00,30.0,30.0,30.08,SE,135,4.0,5.0,100,0.00,,,0.00,TxWx,2013-02-10 00:39:00,
2013-02-09 18:44:00,30.0,30.0,30.07,SE,135,3.0,3.0,100,0.00,,,0.00,TxWx,2013-02-10 00:44:00,
2013-02-09 18:49:00,30.0,30.0,30.07,SE,135,3.0,3.0,100,0.00,,,0.00,TxWx,2013-02-10 00:49:00,
2013-02-09 18:54:00,29.0,29.0,30.07,ESE,112,3.0,3.0,100,0.00,,,0.00,TxWx,2013-02-10 00:54:00,
2013-02-09 18:59:00,29.0,29.0,30.07,ESE,112,3.0,3.0,100,0.00,,,0.00,TxWx,2013-02-10 00:59:00,
2013-02-09 19:04:00,29.0,29.0,30.07,East,90,1.0,1.0,100,0.00,,,0.00,TxWx,2013-02-10 01:04:00,
2013-02-09 19:10:00,29.0,29.0,30.07,ENE,67,1.0,1.0,100,0.00,,,0.00,TxWx,2013-02-10 01:10:00,
2013-02-09 19:15:00,29.0,28.0,30.07,East,90,3.0,3.0,99,0.00,,,0.00,TxWx,2013-02-10 01:15:00,
2013-02-09 19:20:00,29.0,28.0,30.07,East,90,3.0,3.0,99,0.00,,,0.00,TxWx,2013-02-10 01:20:00,
2013-02-09 19:25:00,28.0,27.0,30.07,ENE,67,2.0,3.0,98,0.00,,,0.00,TxWx,2013-02-10 01:25:00,
2013-02-09 19:30:00,28.0,26.0,30.07,East,90,3.0,3.0,96,0.00,,,0.00,TxWx,2013-02-10 01:30:00,
2013-02-09 19:36:00,28.0,26.0,30.06,NE,45,2.0,2.0,95,0.00,,,0.00,TxWx,2013-02-10 01:36:00,
2013-02-09 19:41:00,28.0,25.0,30.06,East,90,2.0,2.0,94,0.00,,,0.00,TxWx,2013-02-10 01:41:00,
2013-02-09 19:46:00,28.0,25.0,30.06,East,90,3.0,3.0,93,0.00,,,0.00,TxWx,2013-02-10 01:46:00,
2013-02-09 19:51:00,27.0,24.0,30.06,ESE,112,2.0,2.0,93,0.00,,,0.00,TxWx,2013-02-10 01:51:00,
2013-02-09 19:56:00,27.0,24.0,30.06,East,90,2.0,2.0,92,0.00,,,0.00,TxWx,2013-02-10 01:56:00,
2013-02-09 20:01:00,27.0,23.0,30.06,East,90,3.0,3.0,89,0.00,,,0.00,TxWx,2013-02-10 02:01:00,
2013-02-09 20:07:00,27.0,23.0,30.06,East,90,3.0,3.0,87,0.00,,,0.00,TxWx,2013-02-10 02:07:00,
2013-02-09 20:12:00,27.0,22.0,30.06,ESE,112,2.0,2.0,86,0.00,,,0.00,TxWx,2013-02-10 02:12:00,
2013-02-09 20:17:00,27.0,22.0,30.05,ENE,67,1.0,2.0,84,0.00,,,0.00,TxWx,2013-02-10 02:17:00,
2013-02-09 20:22:00,27.0,21.0,30.05,East,90,3.0,3.0,82,0.00,,,0.00,TxWx,2013-02-10 02:22:00,
2013-02-09 20:28:00,27.0,21.0,30.05,East,90,2.0,2.0,80,0.00,,,0.00,TxWx,2013-02-10 02:28:00,
2013-02-09 20:33:00,27.0,20.0,30.05,East,90,3.0,3.0,79,0.00,,,0.00,TxWx,2013-02-10 02:33:00,
2013-02-09 20:38:00,27.0,20.0,30.05,East,90,2.0,3.0,77,0.00,,,0.00,TxWx,2013-02-10 02:38:00,
2013-02-09 20:44:00,26.0,19.0,30.05,ESE,112,2.0,3.0,79,0.00,,,0.00,TxWx,2013-02-10 02:44:00,
2013-02-09 20:49:00,26.0,18.0,30.05,ESE,112,2.0,3.0,75,0.00,,,0.00,TxWx,2013-02-10 02:49:00,
2013-02-09 20:54:00,26.0,18.0,30.04,East,90,2.0,3.0,74,0.00,,,0.00,TxWx,2013-02-10 02:54:00,
2013-02-09 20:59:00,26.0,17.0,30.04,East,90,4.0,4.0,70,0.00,,,0.00,TxWx,2013-02-10 02:59:00,
2013-02-09 21:04:00,26.0,16.0,30.04,East,90,3.0,3.0,68,0.00,,,0.00,TxWx,2013-02-10 03:04:00,
2013-02-09 21:10:00,26.0,16.0,30.04,East,90,3.0,3.0,69,0.00,,,0.00,TxWx,2013-02-10 03:10:00,
2013-02-09 21:15:00,27.0,16.0,30.04,East,90,2.0,2.0,65,0.00,,,0.00,TxWx,2013-02-10 03:15:00,
2013-02-09 21:20:00,27.0,15.0,30.04,NE,45,1.0,1.0,63,0.00,,,0.00,TxWx,2013-02-10 03:20:00,
2013-02-09 21:25:00,26.0,14.0,30.04,NNE,22,0.0,0.0,63,0.00,,,0.00,TxWx,2013-02-10 03:25:00,
2013-02-09 21:31:00,26.0,14.0,30.05,NE,45,0.0,0.0,62,0.00,,,0.00,TxWx,2013-02-10 03:31:00,
2013-02-09 21:36:00,26.0,12.0,30.04,NNE,22,2.0,2.0,57,0.00,,,0.00,TxWx,2013-02-10 03:36:00,
2013-02-09 21:41:00,27.0,12.0,30.03,NE,45,3.0,3.0,55,0.00,,,0.00,TxWx,2013-02-10 03:41:00,
2013-02-09 21:46:00,26.0,11.0,30.03,East,90,3.0,3.0,56,0.00,,,0.00,TxWx,2013-02-10 03:46:00,
2013-02-09 21:52:00,27.0,12.0,30.03,East,90,4.0,4.0,54,0.00,,,0.00,TxWx,2013-02-10 03:52:00,
2013-02-09 21:57:00,25.0,15.0,30.03,East,90,5.0,5.0,69,0.00,,,0.00,TxWx,2013-02-10 03:57:00,
2013-02-09 22:02:00,26.0,9.0,30.02,East,90,4.0,4.0,50,0.00,,,0.00,TxWx,2013-02-10 04:02:00,
2013-02-09 22:07:00,26.0,10.0,30.02,ESE,112,3.0,3.0,52,0.00,,,0.00,TxWx,2013-02-10 04:07:00,
2013-02-09 22:13:00,27.0,8.0,30.02,ESE,112,5.0,5.0,46,0.00,,,0.00,TxWx,2013-02-10 04:13:00,
2013-02-09 22:18:00,26.0,8.0,30.02,East,90,4.0,4.0,49,0.00,,,0.00,TxWx,2013-02-10 04:18:00,
2013-02-09 22:23:00,26.0,10.0,30.02,ESE,112,3.0,4.0,52,0.00,,,0.00,TxWx,2013-02-10 04:23:00,
2013-02-09 22:28:00,26.0,9.0,30.01,East,90,3.0,3.0,51,0.00,,,0.00,TxWx,2013-02-10 04:28:00,
2013-02-09 22:33:00,26.0,7.0,30.01,East,90,3.0,3.0,46,0.00,,,0.00,TxWx,2013-02-10 04:33:00,
2013-02-09 22:38:00,26.0,6.0,30.01,East,90,2.0,3.0,44,0.00,,,0.00,TxWx,2013-02-10 04:38:00,
2013-02-09 22:44:00,26.0,5.0,30.01,ENE,67,1.0,2.0,43,0.00,,,0.00,TxWx,2013-02-10 04:44:00,
2013-02-09 22:49:00,26.0,6.0,30.01,NE,45,2.0,2.0,44,0.00,,,0.00,TxWx,2013-02-10 04:49:00,
2013-02-09 22:54:00,26.0,7.0,30.01,ENE,67,3.0,3.0,45,0.00,,,0.00,TxWx,2013-02-10 04:54:00,
2013-02-09 23:00:00,26.0,6.0,30.00,ENE,67,3.0,3.0,45,0.00,,,0.00,TxWx,2013-02-10 05:00:00,
2013-02-09 23:01:00,26.0,6.0,30.00,East,90,3.0,3.0,43,0.00,,,0.00,TxWx,2013-02-10 05:01:00,
2013-02-09 23:07:00,26.0,4.0,30.00,East,90,3.0,3.0,40,0.00,,,0.00,TxWx,2013-02-10 05:07:00,
2013-02-09 23:12:00,26.0,6.0,30.00,East,90,3.0,3.0,44,0.00,,,0.00,TxWx,2013-02-10 05:12:00,
2013-02-09 23:17:00,26.0,6.0,30.00,East,90,3.0,3.0,44,0.00,,,0.00,TxWx,2013-02-10 05:17:00,
2013-02-09 23:22:00,26.0,2.0,30.00,East,90,5.0,5.0,37,0.00,,,0.00,TxWx,2013-02-10 05:22:00,
2013-02-09 23:27:00,26.0,2.0,30.00,East,90,5.0,5.0,37,0.00,,,0.00,TxWx,2013-02-10 05:27:00,
2013-02-09 23:33:00,26.0,3.0,29.99,East,90,4.0,5.0,38,0.00,,,0.00,TxWx,2013-02-10 05:33:00,
2013-02-09 23:38:00,26.0,3.0,29.99,ESE,112,5.0,5.0,38,0.00,,,0.00,TxWx,2013-02-10 05:38:00,
2013-02-09 23:43:00,26.0,3.0,30.00,East,90,4.0,5.0,38,0.00,,,0.00,TxWx,2013-02-10 05:43:00,
2013-02-09 23:48:00,26.0,2.0,29.99,ESE,112,5.0,5.0,36,0.00,,,0.00,TxWx,2013-02-10 05:48:00,
2013-02-09 23:54:00,26.0,1.0,29.99,ESE,112,5.0,6.0,35,0.00,,,0.00,TxWx,2013-02-10 05:54:00,
2013-02-09 23:59:00,26.0,0.0,29.99,ESE,112,5.0,5.0,34,0.00,,,0.00,TxWx,2013-02-10 05:59:00,